User: anonymous   Login
Location: Luxembourg
(49.6117°N, 6.1300°E)
Time: 13:12:51
(UTC+01:00)
Language:

AO-85 - Orbit

View from above orbital plane
View from above orbital plane
View from above satellite
View from above satellite

Ground track
Ground track

The orbit data is extracted from the following two-line orbital elements,

1 40967U 15058D   19324.48101002  .00000217  00000 0  43005-4 0  8714
2 40967  64.7766  48.3466 0181490 151.5233 209.5936 14.76030790130586
Epoch (UTC): 20 November 2019 11:32:39
Eccentricity: 0.0181490
inclination: 64.7766°
perigee height: 514 km
apogee height: 769 km
right ascension of ascending node: 48.3466°
argument of perigee: 151.5233°
revolutions per day: 14.76030790
mean anomaly at epoch: 209.5936°
orbit number at epoch: 13058

The dashed part of the orbit path shows where the satellite is in the earth's shadow,  

DLR